Regional Weather Roundup
Issued by NWS

Home | Current Version | Previous Version | Text Only | Print | Product List | Glossary On
Versions: 1 2 3 4 5 6 7 8 9 10 11 12 13 14 15 16 17 18 19 20 21 22 23 24 25 26 27 28 29 30 31 32 33 34 35 36 37 38 39 40 41 42 43 44 45 46 47 48 49 50
000
ASUS45 KBOI 011510
RWRID
WEATHER ROUNDUP FOR IDAHO
NATIONAL WEATHER SERVICE BOISE ID
900 AM MDT WED APR 01 2015

NOTE: "FAIR" INDICATES FEW OR NO CLOUDS BELOW 12000 FEET
WITH NO SIGNIFICANT WEATHER AND/OR OBSTRUCTIONS TO VISIBILITY

IDZ012-014-011600-
SOUTHWEST IDAHO


CITY           SKY/WX    TMP DP  RH WIND       PRES   REMARKS
BOISE          MOSUNNY   39  27  62 NW10      30.21R WCI  32
CALDWELL       SUNNY     39  21  48 W10       30.24R WCI  32
MOUNTAIN HOME  SUNNY     37  28  69 NW9       30.20R WCI  30
$$

IDZ016-017-011600-
SOUTHCENTRAL IDAHO


CITY           SKY/WX    TMP DP  RH WIND       PRES   REMARKS
BURLEY         LGT RAIN  35  26  69 W18G25    30.13R WCI  24
JEROME         SUNNY     34  27  75 SW17      30.15R WCI  23
TWIN FALLS     SUNNY     37  24  59 SW14G20   30.17R WCI  28
$$

IDZ019>023-011600-
SOUTHEAST IDAHO


CITY           SKY/WX    TMP DP  RH WIND       PRES   REMARKS
IDAHO FALLS    MOSUNNY   34  25  69 SW20      30.06R WCI  23
POCATELLO      PTSUNNY   36  27  69 SW22      30.12R WCI  25
REXBURG        MOSUNNY   32  26  78 S14       30.04R WCI  22
$$

IDZ006-010-011-018-031-032-011600-
CENTRAL IDAHO MOUNTAINS


CITY           SKY/WX    TMP DP  RH WIND       PRES   REMARKS
MCCALL         PTSUNNY   27  26  96 CALM      30.10R
HAILEY         MOSUNNY   32  16  51 N3        30.07R
STANLEY          N/A     27  21  78 SE3       30.07R
SALMON         PTSUNNY   36  25  64 SW6       30.06R WCI  31
CHALLIS        CLOUDY    30  25  81 S7        30.07R WCI  23
$$

IDZ002-004-006-007-026-011600-
NORTHERN IDAHO


CITY           SKY/WX    TMP DP  RH WIND       PRES   REMARKS
LEWISTON       CLOUDY    43  31  62 W3        30.18R
LOWELL           N/A     40  38  93 CALM      30.19R
COEUR D`ALENE  MOSUNNY   36  30  80 S6        30.13R WCI  31
MULLAN PASS    CLOUDY    22  20  92 W6        29.97R WCI  14
$$


USA.gov is the U.S. government's official web portal to all federal, state and local government web resources and services.